HNL3CJ LIMZ-EPLL

Flight info

Callsign HNL3CJ
Flight time N/A
Altitude 38000
Route MMP DCT DESIP DCT UNIMI/N0438F370 DCT MEBEK N871 BEPAS DCT ENORU DCT ABAKU
Aircraft A319/M-SDE3FGHIRWY/LB1

Departure

Time N/A
Airport Cuneo International Airport (LIMZ)

Arrival

Time 2026-04-29 10:02
Airport Łódź Władysław Reymont Airport (EPLL)
Time Latitude Longitude Altitude Speed Heading
2026-04-29 08:42 45.52828 8.92555 28373 ft 482 kts 48°
2026-04-29 08:42 45.54979 8.96212 28812 ft 481 kts 48°
2026-04-29 08:43 45.57128 8.99864 29253 ft 480 kts 48°
2026-04-29 08:43 45.59276 9.03515 29708 ft 479 kts 48°
2026-04-29 08:43 45.61411 9.07149 30165 ft 478 kts 48°
2026-04-29 08:43 45.63542 9.10787 30561 ft 477 kts 48°
2026-04-29 08:44 45.65677 9.14409 30950 ft 476 kts 46°
2026-04-29 08:44 45.67870 9.17937 31341 ft 474 kts 45°
2026-04-29 08:44 45.70118 9.21388 31736 ft 473 kts 44°
2026-04-29 08:44 45.72388 9.24795 32128 ft 472 kts 43°
2026-04-29 08:45 45.74627 9.28145 32536 ft 472 kts 43°
2026-04-29 08:45 45.76910 9.31596 32948 ft 471 kts 44°
2026-04-29 08:45 45.79114 9.34980 33338 ft 471 kts 44°
2026-04-29 08:45 45.81339 9.38437 33747 ft 470 kts 44°
2026-04-29 08:46 45.83544 9.41890 34145 ft 470 kts 44°
2026-04-29 08:46 45.85748 9.45351 34493 ft 470 kts 44°
2026-04-29 08:46 45.87951 9.48809 34828 ft 470 kts 44°
2026-04-29 08:46 45.90168 9.52279 35126 ft 471 kts 44°
2026-04-29 08:47 45.92386 9.55745 35454 ft 472 kts 44°
2026-04-29 08:47 45.94605 9.59218 35751 ft 472 kts 44°
2026-04-29 08:47 45.96826 9.62704 36003 ft 473 kts 44°
2026-04-29 08:47 45.99046 9.66198 36287 ft 473 kts 44°
2026-04-29 08:48 46.01268 9.69696 36516 ft 474 kts 44°
2026-04-29 08:48 46.03495 9.73200 36828 ft 474 kts 44°
2026-04-29 08:48 46.05724 9.76706 37146 ft 474 kts 44°
2026-04-29 08:48 46.07956 9.80220 37447 ft 475 kts 44°
2026-04-29 08:49 46.10185 9.83738 37788 ft 475 kts 44°
2026-04-29 08:49 46.12409 9.87256 38063 ft 476 kts 44°
2026-04-29 08:49 46.14639 9.90792 38126 ft 476 kts 44°
2026-04-29 08:50 46.19081 9.97867 38126 ft 476 kts 44°
2026-04-29 08:50 46.23493 10.04891 38129 ft 475 kts 44°
2026-04-29 08:51 46.27928 10.11949 38131 ft 474 kts 44°
2026-04-29 08:51 46.32353 10.19031 38134 ft 474 kts 44°
2026-04-29 08:52 46.36053 10.24969 38151 ft 475 kts 44°
2026-04-29 08:52 46.40474 10.32072 38149 ft 474 kts 44°
2026-04-29 08:53 46.44877 10.39168 38145 ft 473 kts 44°
2026-04-29 08:53 46.49271 10.46275 38144 ft 473 kts 44°
2026-04-29 08:54 46.53663 10.53389 38158 ft 473 kts 44°
2026-04-29 08:54 46.58016 10.60462 38166 ft 473 kts 44°
2026-04-29 08:55 46.62396 10.67601 38170 ft 473 kts 44°
2026-04-29 08:55 46.66774 10.74748 38184 ft 473 kts 44°
2026-04-29 08:56 46.71144 10.81898 38183 ft 472 kts 44°
2026-04-29 08:56 46.75506 10.89055 38193 ft 472 kts 44°
2026-04-29 08:57 46.79856 10.96216 38193 ft 472 kts 44°
2026-04-29 08:57 46.84203 11.03402 38196 ft 472 kts 44°
2026-04-29 08:58 46.89061 11.09681 38199 ft 463 kts 31°
2026-04-29 08:58 46.94286 11.15209 38205 ft 464 kts 31°
2026-04-29 08:59 46.99507 11.20761 38200 ft 464 kts 31°
2026-04-29 08:59 47.04731 11.26335 38206 ft 464 kts 31°
2026-04-29 09:00 47.09951 11.31924 38194 ft 465 kts 32°
2026-04-29 09:00 47.15181 11.37532 38196 ft 465 kts 31°
2026-04-29 09:01 47.20408 11.43150 38199 ft 466 kts 32°
2026-04-29 09:01 47.25643 11.48789 38205 ft 466 kts 32°
2026-04-29 09:02 47.30876 11.54438 38197 ft 466 kts 31°
2026-04-29 09:02 47.36107 11.60082 38192 ft 466 kts 31°
2026-04-29 09:03 47.41344 11.65759 38199 ft 467 kts 32°
2026-04-29 09:03 47.46565 11.71453 38198 ft 467 kts 32°
2026-04-29 09:04 47.51791 11.77169 38209 ft 467 kts 32°
2026-04-29 09:04 47.57014 11.82883 38218 ft 467 kts 31°
2026-04-29 09:05 47.62233 11.88599 38231 ft 467 kts 32°
2026-04-29 09:05 47.67451 11.94331 38235 ft 466 kts 32°
2026-04-29 09:06 47.72657 12.00065 38240 ft 466 kts 32°
2026-04-29 09:06 47.77855 12.05801 38248 ft 465 kts 32°
2026-04-29 09:07 47.83036 12.11544 38250 ft 465 kts 32°
2026-04-29 09:07 47.88215 12.17304 38261 ft 465 kts 32°
2026-04-29 09:08 47.93400 12.23079 38262 ft 465 kts 32°
2026-04-29 09:08 47.98577 12.28858 38259 ft 465 kts 32°
2026-04-29 09:09 48.03747 12.34647 38259 ft 464 kts 32°
2026-04-29 09:09 48.08912 12.40446 38262 ft 464 kts 32°
2026-04-29 09:10 48.14066 12.46243 38264 ft 463 kts 32°
2026-04-29 09:10 48.19183 12.52007 38264 ft 463 kts 32°
2026-04-29 09:11 48.24329 12.57814 38272 ft 463 kts 32°
2026-04-29 09:11 48.29488 12.63583 38275 ft 462 kts 32°
2026-04-29 09:12 48.34652 12.69326 38275 ft 461 kts 32°
2026-04-29 09:12 48.39788 12.75122 38273 ft 463 kts 36°
2026-04-29 09:13 48.44534 12.81714 38276 ft 464 kts 38°
2026-04-29 09:13 48.49262 12.88335 38275 ft 464 kts 38°
2026-04-29 09:14 48.53983 12.94960 38274 ft 463 kts 39°
2026-04-29 09:14 48.58579 13.01806 38270 ft 464 kts 41°
2026-04-29 09:15 48.63042 13.08868 38273 ft 464 kts 42°
2026-04-29 09:15 48.67495 13.15932 38271 ft 464 kts 42°
2026-04-29 09:16 48.71975 13.22954 38271 ft 463 kts 41°
2026-04-29 09:16 48.76463 13.29939 38278 ft 463 kts 41°
2026-04-29 09:17 48.80948 13.36943 38276 ft 462 kts 42°
2026-04-29 09:17 48.85406 13.43961 38285 ft 462 kts 42°
2026-04-29 09:18 48.89847 13.51017 38287 ft 462 kts 43°
2026-04-29 09:18 48.94044 13.58452 38296 ft 464 kts 47°
2026-04-29 09:19 48.98019 13.66196 38297 ft 464 kts 48°
2026-04-29 09:19 49.01988 13.73946 38304 ft 464 kts 47°
2026-04-29 09:20 49.06014 13.81622 38312 ft 463 kts 47°
2026-04-29 09:20 49.10052 13.89270 38313 ft 463 kts 47°
2026-04-29 09:21 49.14080 13.96939 38322 ft 462 kts 47°
2026-04-29 09:21 49.18088 14.04608 38324 ft 462 kts 47°
2026-04-29 09:22 49.22057 14.12241 38326 ft 461 kts 47°
2026-04-29 09:22 49.26040 14.19937 38326 ft 461 kts 47°
2026-04-29 09:23 49.30020 14.27628 38326 ft 460 kts 47°
2026-04-29 09:23 49.33999 14.35325 38327 ft 460 kts 47°
2026-04-29 09:24 49.37965 14.43029 38321 ft 460 kts 47°
2026-04-29 09:24 49.41921 14.50744 38329 ft 460 kts 47°
2026-04-29 09:25 49.45868 14.58468 38324 ft 460 kts 47°
2026-04-29 09:25 49.49810 14.66217 38326 ft 459 kts 47°
2026-04-29 09:26 49.53748 14.73955 38327 ft 459 kts 47°
2026-04-29 09:26 49.57682 14.81712 38328 ft 459 kts 48°
2026-04-29 09:27 49.61612 14.89480 38332 ft 459 kts 48°
2026-04-29 09:27 49.65509 14.97206 38329 ft 459 kts 48°
2026-04-29 09:28 49.69420 15.05004 38332 ft 459 kts 48°
2026-04-29 09:28 49.73324 15.12809 38333 ft 459 kts 48°
2026-04-29 09:29 49.77232 15.20613 38343 ft 459 kts 48°
2026-04-29 09:29 49.83080 15.32359 38346 ft 459 kts 48°
2026-04-29 09:30 49.86967 15.40214 38357 ft 459 kts 48°
2026-04-29 09:30 49.90855 15.48071 38363 ft 459 kts 48°
2026-04-29 09:31 49.94740 15.55939 38377 ft 459 kts 48°
2026-04-29 09:31 49.98612 15.63830 38383 ft 459 kts 48°
2026-04-29 09:32 50.02475 15.71727 38382 ft 459 kts 48°
2026-04-29 09:32 50.06345 15.79644 38377 ft 459 kts 48°
2026-04-29 09:33 50.10206 15.87547 38380 ft 458 kts 48°
2026-04-29 09:33 50.14056 15.95479 38382 ft 458 kts 48°
2026-04-29 09:34 50.17891 16.03416 38379 ft 458 kts 48°
2026-04-29 09:34 50.21699 16.11307 38387 ft 458 kts 48°
2026-04-29 09:35 50.25529 16.19246 38391 ft 458 kts 48°
2026-04-29 09:35 50.29346 16.27213 38397 ft 458 kts 48°
2026-04-29 09:36 50.32535 16.33902 38400 ft 457 kts 48°
2026-04-29 09:36 50.36383 16.41821 38404 ft 456 kts 46°
2026-04-29 09:37 50.40362 16.49448 38405 ft 454 kts 45°
2026-04-29 09:37 50.44393 16.57073 38406 ft 454 kts 46°
2026-04-29 09:38 50.48385 16.64759 38409 ft 454 kts 46°
2026-04-29 09:38 50.52349 16.72502 38412 ft 455 kts 46°
2026-04-29 09:39 50.56299 16.80266 38416 ft 455 kts 46°
2026-04-29 09:39 50.60250 16.88044 38425 ft 455 kts 46°
2026-04-29 09:40 50.64212 16.95821 38425 ft 455 kts 46°
2026-04-29 09:40 50.68172 17.03613 38431 ft 455 kts 47°
2026-04-29 09:41 50.72114 17.11421 38433 ft 455 kts 47°
2026-04-29 09:41 50.76047 17.19228 38434 ft 454 kts 47°
2026-04-29 09:42 50.79973 17.27036 38439 ft 453 kts 47°
2026-04-29 09:42 50.83881 17.34839 38439 ft 452 kts 47°
2026-04-29 09:43 50.87777 17.42644 38440 ft 452 kts 47°
2026-04-29 09:43 50.91662 17.50463 38439 ft 451 kts 47°
2026-04-29 09:44 50.95540 17.58275 38445 ft 450 kts 47°
2026-04-29 09:44 50.99411 17.66081 38438 ft 450 kts 47°
2026-04-29 09:45 51.03272 17.73891 38446 ft 449 kts 47°
2026-04-29 09:45 51.07112 17.81718 38443 ft 449 kts 47°
2026-04-29 09:46 51.10947 17.89548 38446 ft 448 kts 47°
2026-04-29 09:46 51.14753 17.97328 38443 ft 448 kts 47°
2026-04-29 09:47 51.18571 18.05159 38444 ft 447 kts 47°
2026-04-29 09:47 51.22381 18.13012 38055 ft 448 kts 47°
2026-04-29 09:48 51.24296 18.16961 37169 ft 452 kts 47°
2026-04-29 09:48 51.26222 18.20939 36322 ft 454 kts 46°
2026-04-29 09:48 51.28157 18.24941 35520 ft 456 kts 46°
2026-04-29 09:48 51.30101 18.28963 34729 ft 457 kts 46°
2026-04-29 09:49 51.32047 18.32988 33856 ft 458 kts 46°
2026-04-29 09:49 51.33995 18.37030 32936 ft 459 kts 46°
2026-04-29 09:49 51.35936 18.41076 32030 ft 458 kts 46°
2026-04-29 09:49 51.37871 18.45123 31131 ft 457 kts 46°
2026-04-29 09:50 51.39807 18.49171 30145 ft 457 kts 46°
2026-04-29 09:50 51.41176 18.52036 29310 ft 457 kts 46°
2026-04-29 09:50 51.42234 18.54251 28626 ft 457 kts 46°
2026-04-29 09:50 51.44169 18.58303 27330 ft 459 kts 46°
2026-04-29 09:51 51.46112 18.62377 25993 ft 461 kts 46°
2026-04-29 09:51 51.48067 18.66486 24605 ft 464 kts 46°
2026-04-29 09:51 51.50018 18.70598 23580 ft 460 kts 45°
2026-04-29 09:51 51.51930 18.74646 22556 ft 452 kts 45°
2026-04-29 09:52 51.53817 18.78654 21579 ft 446 kts 45°
2026-04-29 09:52 51.55677 18.82601 20631 ft 440 kts 45°
2026-04-29 09:52 51.57512 18.86492 19734 ft 434 kts 45°
2026-04-29 09:52 51.59304 18.90299 19396 ft 414 kts 45°
2026-04-29 09:53 51.60966 18.93862 19234 ft 384 kts 45°
2026-04-29 09:53 51.62508 18.97182 19104 ft 358 kts 45°
2026-04-29 09:53 51.63963 19.00313 18636 ft 343 kts 44°
2026-04-29 09:53 51.65355 19.03278 18281 ft 326 kts 44°
2026-04-29 09:54 51.66707 19.06155 17869 ft 312 kts 44°
2026-04-29 09:54 51.67849 19.09069 17277 ft 316 kts 57°
2026-04-29 09:54 51.68638 19.12379 16664 ft 315 kts 63°
2026-04-29 09:54 51.69370 19.15678 16083 ft 311 kts 64°
2026-04-29 09:55 51.70094 19.18973 15161 ft 316 kts 65°
2026-04-29 09:55 51.70838 19.22350 14171 ft 323 kts 66°
2026-04-29 09:55 51.71744 19.25654 13073 ft 320 kts 51°
2026-04-29 09:55 51.73400 19.27944 12018 ft 315 kts 23°
2026-04-29 09:56 51.75521 19.28582 10999 ft 314 kts 356°
2026-04-29 09:56 51.77644 19.27745 9970 ft 316 kts 336°
2026-04-29 09:56 51.79334 19.25499 8886 ft 321 kts 307°
2026-04-29 09:56 51.80131 19.22126 7834 ft 328 kts 278°
2026-04-29 09:57 51.79861 19.18480 6978 ft 328 kts 254°
2026-04-29 09:57 51.78858 19.15331 6793 ft 307 kts 230°
2026-04-29 09:57 51.77171 19.13455 6469 ft 291 kts 202°
2026-04-29 09:57 51.75188 19.12709 5509 ft 298 kts 181°
2026-04-29 09:58 51.73130 19.13040 4806 ft 294 kts 162°
2026-04-29 09:58 51.71267 19.14031 4508 ft 274 kts 158°
2026-04-29 09:58 51.69477 19.15043 3935 ft 268 kts 155°
2026-04-29 09:58 51.68076 19.16784 3501 ft 247 kts 118°
2026-04-29 09:59 51.67648 19.19329 2941 ft 233 kts 78°
2026-04-29 09:59 51.68150 19.21696 2599 ft 217 kts 63°
2026-04-29 09:59 51.68698 19.23893 2315 ft 205 kts 65°
2026-04-29 09:59 51.69177 19.26000 2043 ft 198 kts 65°
2026-04-29 10:00 51.69630 19.28057 1790 ft 191 kts 66°
2026-04-29 10:00 51.70061 19.30031 1533 ft 181 kts 66°
2026-04-29 10:00 51.70467 19.31883 1289 ft 169 kts 66°
2026-04-29 10:00 51.70839 19.33609 1082 ft 157 kts 66°
2026-04-29 10:01 51.71183 19.35201 884 ft 147 kts 66°
2026-04-29 10:01 51.71513 19.36707 695 ft 137 kts 66°
2026-04-29 10:01 51.71817 19.38087 584 ft 120 kts 70°
2026-04-29 10:01 51.72040 19.39110 592 ft 72 kts 72°
2026-04-29 10:02 51.72145 19.39610 593 ft 22 kts 71°
2026-04-29 10:02 51.72158 19.39669 594 ft 1 kts 70°
2026-04-29 10:02 51.72161 19.39683 594 ft 3 kts 69°
2026-04-29 10:02 51.72176 19.39752 596 ft 10 kts 71°
2026-04-29 10:03 51.72206 19.39884 601 ft 15 kts 69°
2026-04-29 10:03 51.72243 19.40063 610 ft 17 kts 70°
2026-04-29 10:03 51.72280 19.40220 618 ft 14 kts 71°
2026-04-29 10:03 51.72312 19.40369 617 ft 15 kts 71°
2026-04-29 10:04 51.72343 19.40511 619 ft 9 kts 71°
2026-04-29 10:04 51.72370 19.40586 614 ft 8 kts 36°
2026-04-29 10:04 51.72429 19.40576 621 ft 9 kts 340°
2026-04-29 10:04 51.72490 19.40538 619 ft 10 kts 339°
2026-04-29 10:05 51.72546 19.40463 621 ft 12 kts 309°
2026-04-29 10:05 51.72590 19.40363 621 ft 10 kts 282°
2026-04-29 10:05 51.72548 19.40308 615 ft 10 kts 184°
2026-04-29 10:05 51.72531 19.40337 615 ft 4 kts 76°
2026-04-29 10:06 51.72544 19.40352 621 ft 0 kts 27°